Time,TemperatureF,DewpointF,PressureIn,WindDirection,WindDirectionDegrees,WindSpeedMPH,WindSpeedGustMPH,Humidity,HourlyPrecipIn,Conditions,Clouds,dailyrainin,SoftwareType,DateUTC
2013-06-19 00:01:00,68.4,66.0,29.92,SSE,150,0.0,1.0,92,0.00,,,0.00,meteohub,2013-06-19 05:01:00,
2013-06-19 00:06:00,68.4,66.0,29.93,SSE,150,0.0,1.0,92,0.00,,,0.00,meteohub,2013-06-19 05:06:00,
2013-06-19 00:11:00,68.4,66.2,29.93,SSE,150,0.0,1.0,93,0.00,,,0.00,meteohub,2013-06-19 05:11:00,
2013-06-19 00:16:00,68.4,66.2,29.93,SSE,150,0.0,1.0,93,0.00,,,0.00,meteohub,2013-06-19 05:16:00,
2013-06-19 00:21:00,68.4,66.2,29.93,SSE,150,0.0,1.0,93,0.00,,,0.00,meteohub,2013-06-19 05:21:00,
2013-06-19 00:26:00,68.4,66.2,29.93,SSE,150,0.0,1.0,93,0.00,,,0.00,meteohub,2013-06-19 05:26:00,
2013-06-19 00:31:00,68.4,66.2,29.93,SSE,150,0.0,1.0,93,0.00,,,0.00,meteohub,2013-06-19 05:31:00,
2013-06-19 00:36:00,68.2,66.0,29.94,SSE,150,0.0,1.0,93,0.00,,,0.00,meteohub,2013-06-19 05:36:00,
2013-06-19 00:41:00,68.2,66.0,29.94,SSE,150,0.0,1.0,93,0.00,,,0.00,meteohub,2013-06-19 05:41:00,
2013-06-19 00:46:00,68.2,66.0,29.94,SSE,150,0.0,1.0,93,0.00,,,0.00,meteohub,2013-06-19 05:46:00,
2013-06-19 00:51:00,68.0,65.8,29.94,SSE,150,0.0,1.0,93,0.00,,,0.00,meteohub,2013-06-19 05:51:00,
2013-06-19 00:56:00,67.8,65.7,29.94,SSE,150,1.0,1.0,93,0.00,,,0.00,meteohub,2013-06-19 05:56:00,
2013-06-19 01:01:00,67.8,65.7,29.94,SSE,150,0.0,2.0,93,0.00,,,0.00,meteohub,2013-06-19 06:01:00,
2013-06-19 01:06:00,67.8,66.0,29.93,SSE,150,0.0,2.0,94,0.00,,,0.00,meteohub,2013-06-19 06:06:00,
2013-06-19 01:11:00,67.8,66.0,29.93,SSE,150,0.0,2.0,94,0.00,,,0.00,meteohub,2013-06-19 06:11:00,
2013-06-19 01:16:00,67.8,66.0,29.93,SSE,150,0.0,2.0,94,0.00,,,0.00,meteohub,2013-06-19 06:16:00,
2013-06-19 01:21:00,67.8,66.0,29.93,SSE,150,0.0,2.0,94,0.00,,,0.00,meteohub,2013-06-19 06:21:00,
2013-06-19 01:26:00,67.8,66.0,29.94,SSE,149,0.0,2.0,94,0.00,,,0.00,meteohub,2013-06-19 06:26:00,
2013-06-19 01:31:00,67.8,66.0,29.94,SSE,148,0.0,2.0,94,0.00,,,0.00,meteohub,2013-06-19 06:31:00,
2013-06-19 01:36:00,67.6,65.8,29.94,SSE,148,0.0,2.0,94,0.00,,,0.00,meteohub,2013-06-19 06:36:00,
2013-06-19 01:41:00,67.6,65.8,29.94,SSE,148,0.0,2.0,94,0.00,,,0.00,meteohub,2013-06-19 06:41:00,
2013-06-19 01:46:00,67.6,65.8,29.94,SSE,148,0.0,2.0,94,0.00,,,0.00,meteohub,2013-06-19 06:46:00,
2013-06-19 01:51:00,67.5,65.7,29.94,SSE,148,0.0,1.0,94,0.00,,,0.00,meteohub,2013-06-19 06:51:00,
2013-06-19 01:56:00,67.5,65.7,29.94,SSE,148,0.0,1.0,94,0.00,,,0.00,meteohub,2013-06-19 06:56:00,
2013-06-19 02:01:00,67.5,65.7,29.94,SSE,148,0.0,1.0,94,0.00,,,0.00,meteohub,2013-06-19 07:01:00,
2013-06-19 02:06:00,67.3,65.5,29.94,SSE,148,0.0,1.0,94,0.00,,,0.00,meteohub,2013-06-19 07:06:00,
2013-06-19 02:11:00,67.3,65.5,29.94,SSE,148,0.0,1.0,94,0.00,,,0.00,meteohub,2013-06-19 07:11:00,
2013-06-19 02:16:00,67.3,65.5,29.94,SSE,148,0.0,1.0,94,0.00,,,0.00,meteohub,2013-06-19 07:16:00,
2013-06-19 02:21:00,67.5,66.0,29.94,SSE,148,0.0,0.0,95,0.00,,,0.00,meteohub,2013-06-19 07:21:00,
2013-06-19 02:26:00,67.3,65.8,29.94,SSE,148,0.0,0.0,95,0.00,,,0.00,meteohub,2013-06-19 07:26:00,
2013-06-19 02:31:00,67.5,66.0,29.94,SSE,148,0.0,1.0,95,0.00,,,0.00,meteohub,2013-06-19 07:31:00,
2013-06-19 02:36:00,67.5,66.0,29.94,SSE,148,0.0,1.0,95,0.00,,,0.00,meteohub,2013-06-19 07:36:00,
2013-06-19 02:41:00,67.5,66.0,29.94,SSE,148,0.0,0.0,95,0.00,,,0.00,meteohub,2013-06-19 07:41:00,
2013-06-19 02:46:00,67.3,65.5,29.94,SSE,148,0.0,0.0,94,0.00,,,0.00,meteohub,2013-06-19 07:46:00,
2013-06-19 02:51:00,67.3,65.8,29.94,SSE,148,0.0,0.0,95,0.00,,,0.00,meteohub,2013-06-19 07:51:00,
2013-06-19 02:56:00,67.3,65.8,29.94,SSE,148,0.0,0.0,95,0.00,,,0.00,meteohub,2013-06-19 07:56:00,
2013-06-19 03:01:00,67.1,65.7,29.94,SSE,148,0.0,0.0,95,0.00,,,0.00,meteohub,2013-06-19 08:01:00,
2013-06-19 03:06:00,67.1,65.3,29.94,SSE,148,0.0,0.0,94,0.00,,,0.00,meteohub,2013-06-19 08:06:00,
2013-06-19 03:11:00,66.9,65.5,29.94,SSE,148,0.0,0.0,95,0.00,,,0.00,meteohub,2013-06-19 08:11:00,
2013-06-19 03:16:00,66.7,65.3,29.94,SSE,148,0.0,0.0,95,0.00,,,0.00,meteohub,2013-06-19 08:16:00,
2013-06-19 03:21:00,66.6,64.8,29.94,SSE,148,1.0,1.0,94,0.00,,,0.00,meteohub,2013-06-19 08:21:00,
2013-06-19 03:26:00,66.6,65.1,29.94,SSE,148,0.0,1.0,95,0.00,,,0.00,meteohub,2013-06-19 08:26:00,
2013-06-19 03:31:00,66.6,65.1,29.94,SSE,148,0.0,2.0,95,0.00,,,0.00,meteohub,2013-06-19 08:31:00,
2013-06-19 03:36:00,66.4,64.9,29.94,SSE,148,0.0,2.0,95,0.00,,,0.00,meteohub,2013-06-19 08:36:00,
2013-06-19 03:41:00,66.2,64.8,29.94,SSE,148,0.0,2.0,95,0.00,,,0.00,meteohub,2013-06-19 08:41:00,
2013-06-19 03:46:00,66.0,64.6,29.94,SSE,148,0.0,2.0,95,0.00,,,0.00,meteohub,2013-06-19 08:46:00,
2013-06-19 03:51:00,66.0,64.6,29.94,SSE,148,0.0,1.0,95,0.00,,,0.00,meteohub,2013-06-19 08:51:00,
2013-06-19 03:56:00,66.0,64.6,29.94,SSE,148,0.0,1.0,95,0.00,,,0.00,meteohub,2013-06-19 08:56:00,
2013-06-19 04:01:00,66.0,64.6,29.94,SSE,148,0.0,0.0,95,0.00,,,0.00,meteohub,2013-06-19 09:01:00,
2013-06-19 04:06:00,65.8,64.4,29.94,SSE,148,0.0,0.0,95,0.00,,,0.00,meteohub,2013-06-19 09:06:00,
2013-06-19 04:11:00,65.8,64.4,29.94,SSE,148,0.0,0.0,95,0.00,,,0.00,meteohub,2013-06-19 09:11:00,
2013-06-19 04:16:00,65.8,64.4,29.94,SSE,148,0.0,0.0,95,0.00,,,0.00,meteohub,2013-06-19 09:16:00,
2013-06-19 04:21:00,65.8,64.4,29.94,SSE,148,0.0,0.0,95,0.00,,,0.00,meteohub,2013-06-19 09:21:00,
2013-06-19 04:26:00,66.0,64.6,29.94,SSE,148,0.0,0.0,95,0.00,,,0.00,meteohub,2013-06-19 09:26:00,
2013-06-19 04:31:00,66.0,64.6,29.94,SSE,148,0.0,0.0,95,0.00,,,0.00,meteohub,2013-06-19 09:31:00,
2013-06-19 04:36:00,66.0,64.6,29.94,SSE,148,0.0,0.0,95,0.00,,,0.00,meteohub,2013-06-19 09:36:00,
2013-06-19 04:42:00,66.0,64.6,29.94,SSE,148,0.0,0.0,95,0.00,,,0.00,meteohub,2013-06-19 09:42:00,
2013-06-19 04:46:00,65.8,64.4,29.94,SSE,148,0.0,0.0,95,0.00,,,0.00,meteohub,2013-06-19 09:46:00,
2013-06-19 04:52:00,65.8,64.4,29.94,SSE,148,0.0,0.0,95,0.00,,,0.00,meteohub,2013-06-19 09:52:00,
2013-06-19 04:56:00,65.7,64.2,29.94,SSE,148,0.0,0.0,95,0.00,,,0.00,meteohub,2013-06-19 09:56:00,
2013-06-19 05:01:00,65.7,64.4,29.94,SSE,148,0.0,0.0,96,0.00,,,0.00,meteohub,2013-06-19 10:01:00,
2013-06-19 05:06:00,65.7,64.4,29.95,SSE,148,0.0,0.0,96,0.00,,,0.00,meteohub,2013-06-19 10:06:00,
2013-06-19 05:11:00,65.7,64.2,29.94,SSE,148,0.0,0.0,95,0.00,,,0.01,meteohub,2013-06-19 10:11:00,
2013-06-19 05:16:00,65.5,64.0,29.95,SSE,148,0.0,0.0,95,0.01,,,0.01,meteohub,2013-06-19 10:16:00,
2013-06-19 05:21:00,65.5,64.0,29.94,SSE,148,0.0,0.0,95,0.01,,,0.01,meteohub,2013-06-19 10:21:00,
2013-06-19 05:26:00,65.5,64.0,29.94,SSE,148,0.0,0.0,95,0.01,,,0.01,meteohub,2013-06-19 10:26:00,
2013-06-19 05:32:00,65.3,63.9,29.95,SSE,148,1.0,0.0,95,0.01,,,0.01,meteohub,2013-06-19 10:32:00,
2013-06-19 05:37:00,65.1,63.7,29.95,SSE,148,0.0,0.0,95,0.01,,,0.01,meteohub,2013-06-19 10:37:00,
2013-06-19 05:42:00,65.1,63.7,29.95,SSE,148,0.0,0.0,95,0.01,,,0.01,meteohub,2013-06-19 10:42:00,
2013-06-19 05:47:00,64.9,63.9,29.95,SSE,148,0.0,1.0,96,0.01,,,0.01,meteohub,2013-06-19 10:47:00,
2013-06-19 05:51:00,64.9,63.9,29.95,SSE,148,0.0,1.0,96,0.01,,,0.01,meteohub,2013-06-19 10:51:00,
2013-06-19 05:56:00,64.9,63.5,29.95,SSE,148,0.0,1.0,95,0.01,,,0.01,meteohub,2013-06-19 10:56:00,
2013-06-19 06:01:00,64.9,63.5,29.95,SSE,148,0.0,1.0,95,0.01,,,0.01,meteohub,2013-06-19 11:01:00,
2013-06-19 06:06:00,64.9,63.5,29.95,SSE,148,0.0,1.0,95,0.00,,,0.01,meteohub,2013-06-19 11:06:00,
2013-06-19 06:12:00,64.9,63.5,29.95,SSE,148,0.0,2.0,95,0.00,,,0.01,meteohub,2013-06-19 11:12:00,
2013-06-19 06:17:00,64.9,63.5,29.95,SSE,148,0.0,2.0,95,0.00,,,0.01,meteohub,2013-06-19 11:17:00,
2013-06-19 06:22:00,64.9,63.5,29.95,SSE,148,0.0,2.0,95,0.00,,,0.01,meteohub,2013-06-19 11:22:00,
2013-06-19 06:27:00,64.9,63.5,29.95,SSE,148,0.0,2.0,95,0.00,,,0.01,meteohub,2013-06-19 11:27:00,
2013-06-19 06:32:00,64.9,63.5,29.95,SSE,148,0.0,2.0,95,0.00,,,0.01,meteohub,2013-06-19 11:32:00,
2013-06-19 06:37:00,65.1,63.7,29.95,SSE,148,0.0,2.0,95,0.00,,,0.01,meteohub,2013-06-19 11:37:00,
2013-06-19 06:42:00,65.5,64.0,29.95,SSE,148,0.0,2.0,95,0.00,,,0.01,meteohub,2013-06-19 11:42:00,
2013-06-19 06:47:00,65.7,64.2,29.95,SSE,148,0.0,2.0,95,0.00,,,0.01,meteohub,2013-06-19 11:47:00,
2013-06-19 06:52:00,65.7,64.2,29.96,SSE,148,0.0,2.0,95,0.00,,,0.01,meteohub,2013-06-19 11:52:00,
2013-06-19 06:57:00,65.8,64.4,29.96,SSE,148,0.0,2.0,95,0.00,,,0.01,meteohub,2013-06-19 11:57:00,
2013-06-19 07:02:00,66.0,64.6,29.96,SSE,148,0.0,2.0,95,0.00,,,0.01,meteohub,2013-06-19 12:02:00,
2013-06-19 07:07:00,66.4,64.9,29.96,SSE,148,0.0,2.0,95,0.00,,,0.01,meteohub,2013-06-19 12:07:00,
2013-06-19 07:12:00,66.7,65.3,29.96,SSE,148,0.0,2.0,95,0.00,,,0.01,meteohub,2013-06-19 12:12:00,
2013-06-19 07:17:00,66.9,65.1,29.96,SSE,148,0.0,0.0,94,0.00,,,0.01,meteohub,2013-06-19 12:17:00,
2013-06-19 07:22:00,67.1,65.3,29.96,SSE,148,0.0,0.0,94,0.00,,,0.01,meteohub,2013-06-19 12:22:00,
2013-06-19 07:27:00,67.5,65.7,29.96,ENE,74,0.0,0.0,94,0.00,,,0.01,meteohub,2013-06-19 12:27:00,
2013-06-19 07:32:00,67.5,65.3,29.96,ESE,103,0.0,0.0,93,0.00,,,0.01,meteohub,2013-06-19 12:32:00,
2013-06-19 07:37:00,67.8,65.7,29.96,ESE,107,0.0,0.0,93,0.00,,,0.01,meteohub,2013-06-19 12:37:00,
2013-06-19 07:42:00,68.2,65.5,29.96,SE,125,4.0,0.0,91,0.00,,,0.01,meteohub,2013-06-19 12:42:00,
2013-06-19 07:47:00,68.4,65.3,29.96,SE,129,0.0,4.0,90,0.00,,,0.01,meteohub,2013-06-19 12:47:00,
2013-06-19 07:52:00,68.7,65.7,29.96,SE,125,1.0,4.0,90,0.00,,,0.01,meteohub,2013-06-19 12:52:00,
2013-06-19 07:57:00,69.3,65.8,29.96,SE,135,2.0,4.0,89,0.00,,,0.01,meteohub,2013-06-19 12:57:00,
2013-06-19 08:02:00,69.4,65.7,29.96,SE,128,1.0,4.0,88,0.00,,,0.01,meteohub,2013-06-19 13:02:00,
2013-06-19 08:07:00,70.0,66.0,29.96,SE,133,1.0,4.0,87,0.00,,,0.01,meteohub,2013-06-19 13:07:00,
2013-06-19 08:12:00,70.5,66.4,29.96,SE,134,1.0,4.0,87,0.00,,,0.01,meteohub,2013-06-19 13:12:00,
2013-06-19 08:17:00,71.1,66.4,29.96,ESE,117,2.0,4.0,85,0.00,,,0.01,meteohub,2013-06-19 13:17:00,
2013-06-19 08:22:00,71.4,66.4,29.96,SE,140,2.0,4.0,84,0.00,,,0.01,meteohub,2013-06-19 13:22:00,
2013-06-19 08:27:00,72.0,66.9,29.96,SSE,151,0.0,4.0,84,0.00,,,0.01,meteohub,2013-06-19 13:27:00,
2013-06-19 08:32:00,72.3,66.9,29.96,SE,145,3.0,4.0,83,0.00,,,0.01,meteohub,2013-06-19 13:32:00,
2013-06-19 08:37:00,72.9,67.1,29.97,SSE,154,2.0,4.0,82,0.00,,,0.01,meteohub,2013-06-19 13:37:00,
2013-06-19 08:42:00,73.2,67.5,29.97,SE,143,1.0,6.0,82,0.00,,,0.01,meteohub,2013-06-19 13:42:00,
2013-06-19 08:47:00,73.6,67.8,29.97,SSE,155,0.0,6.0,82,0.00,,,0.01,meteohub,2013-06-19 13:47:00,
2013-06-19 08:52:00,73.8,68.0,29.98,SSE,157,3.0,6.0,82,0.00,,,0.01,meteohub,2013-06-19 13:52:00,
2013-06-19 08:57:00,73.9,67.8,29.98,ESE,123,0.0,6.0,81,0.00,,,0.01,meteohub,2013-06-19 13:57:00,
2013-06-19 09:02:00,74.3,68.0,29.97,SE,128,3.0,5.0,81,0.00,,,0.01,meteohub,2013-06-19 14:02:00,
2013-06-19 09:07:00,74.5,67.8,29.97,SE,136,3.0,5.0,80,0.00,,,0.01,meteohub,2013-06-19 14:07:00,
2013-06-19 09:12:00,74.5,68.2,29.97,SSE,149,2.0,5.0,81,0.00,,,0.01,meteohub,2013-06-19 14:12:00,
2013-06-19 09:17:00,74.7,68.4,29.98,SSE,159,3.0,5.0,81,0.00,,,0.01,meteohub,2013-06-19 14:17:00,
2013-06-19 09:22:00,74.8,68.5,29.98,SE,126,0.0,5.0,81,0.00,,,0.01,meteohub,2013-06-19 14:22:00,
2013-06-19 09:27:00,75.0,68.7,29.98,SE,132,1.0,5.0,81,0.00,,,0.01,meteohub,2013-06-19 14:27:00,
2013-06-19 09:32:00,75.4,68.4,29.98,SE,144,3.0,6.0,79,0.00,,,0.01,meteohub,2013-06-19 14:32:00,
2013-06-19 09:37:00,75.7,68.4,29.98,South,179,3.0,6.0,78,0.00,,,0.01,meteohub,2013-06-19 14:37:00,
2013-06-19 09:42:00,75.9,67.8,29.98,SE,134,5.0,6.0,76,0.00,,,0.01,meteohub,2013-06-19 14:42:00,
2013-06-19 09:47:00,76.3,68.2,29.97,SE,132,4.0,6.0,76,0.00,,,0.01,meteohub,2013-06-19 14:47:00,
2013-06-19 09:52:00,76.6,67.6,29.98,SE,140,5.0,6.0,74,0.00,,,0.01,meteohub,2013-06-19 14:52:00,
2013-06-19 09:57:00,76.8,67.8,29.97,ESE,115,6.0,9.0,74,0.00,,,0.01,meteohub,2013-06-19 14:57:00,
2013-06-19 10:02:00,77.0,68.0,29.98,SSE,153,3.0,9.0,74,0.00,,,0.01,meteohub,2013-06-19 15:02:00,
2013-06-19 10:07:00,77.2,67.5,29.97,SSE,167,5.0,9.0,72,0.00,,,0.01,meteohub,2013-06-19 15:07:00,
2013-06-19 10:12:00,77.4,68.0,29.97,ESE,112,1.0,9.0,73,0.00,,,0.01,meteohub,2013-06-19 15:12:00,
2013-06-19 10:17:00,77.5,68.2,29.97,SE,134,3.0,12.0,73,0.00,,,0.01,meteohub,2013-06-19 15:17:00,
2013-06-19 10:22:00,77.5,68.2,29.96,SE,135,5.0,12.0,73,0.00,,,0.01,meteohub,2013-06-19 15:22:00,
2013-06-19 10:27:00,77.7,68.4,29.96,SSE,149,3.0,12.0,73,0.00,,,0.01,meteohub,2013-06-19 15:27:00,
2013-06-19 10:32:00,77.7,68.4,29.96,SSE,159,3.0,12.0,73,0.00,,,0.01,meteohub,2013-06-19 15:32:00,
2013-06-19 10:37:00,78.1,68.4,29.96,SE,129,3.0,12.0,72,0.00,,,0.01,meteohub,2013-06-19 15:37:00,
2013-06-19 10:42:00,78.1,68.4,29.96,ESE,120,4.0,9.0,72,0.00,,,0.01,meteohub,2013-06-19 15:42:00,
2013-06-19 10:47:00,78.1,68.7,29.96,SSE,161,3.0,9.0,73,0.00,,,0.01,meteohub,2013-06-19 15:47:00,
2013-06-19 10:52:00,77.9,68.5,29.96,SSE,157,4.0,9.0,73,0.00,,,0.01,meteohub,2013-06-19 15:52:00,
2013-06-19 10:57:00,77.9,68.5,29.96,SE,140,2.0,9.0,73,0.00,,,0.01,meteohub,2013-06-19 15:57:00,
2013-06-19 11:02:00,78.1,68.7,29.96,SSE,158,2.0,10.0,73,0.00,,,0.01,meteohub,2013-06-19 16:02:00,
2013-06-19 11:07:00,78.4,69.1,29.96,SSE,163,4.0,10.0,73,0.00,,,0.01,meteohub,2013-06-19 16:07:00,
2013-06-19 11:12:00,78.6,68.4,29.96,ESE,123,4.0,10.0,71,0.00,,,0.01,meteohub,2013-06-19 16:12:00,
2013-06-19 11:17:00,79.0,68.7,29.95,SSE,158,7.0,10.0,71,0.00,,,0.01,meteohub,2013-06-19 16:17:00,
2013-06-19 11:22:00,79.0,68.7,29.95,SE,133,1.0,10.0,71,0.00,,,0.01,meteohub,2013-06-19 16:22:00,
2013-06-19 11:27:00,79.0,68.4,29.95,SE,146,4.0,10.0,70,0.00,,,0.01,meteohub,2013-06-19 16:27:00,
2013-06-19 11:32:00,79.3,68.4,29.95,SSE,148,2.0,9.0,69,0.00,,,0.01,meteohub,2013-06-19 16:32:00,
2013-06-19 11:37:00,79.9,68.7,29.95,ESE,116,1.0,9.0,69,0.00,,,0.01,meteohub,2013-06-19 16:37:00,
2013-06-19 11:42:00,80.4,68.9,29.95,SE,125,5.0,9.0,68,0.00,,,0.01,meteohub,2013-06-19 16:42:00,
2013-06-19 11:47:00,80.8,68.7,29.95,ESE,104,1.0,9.0,67,0.00,,,0.01,meteohub,2013-06-19 16:47:00,
2013-06-19 11:52:00,80.8,68.7,29.94,ESE,109,2.0,9.0,67,0.00,,,0.01,meteohub,2013-06-19 16:52:00,
2013-06-19 11:57:00,81.0,69.4,29.94,SE,138,6.0,7.0,68,0.00,,,0.01,meteohub,2013-06-19 16:57:00,
2013-06-19 12:02:00,81.1,69.1,29.95,SSE,156,4.0,7.0,67,0.00,,,0.01,meteohub,2013-06-19 17:02:00,
2013-06-19 12:07:00,81.5,69.4,29.94,SSE,166,6.0,7.0,67,0.00,,,0.01,meteohub,2013-06-19 17:07:00,
2013-06-19 12:12:00,81.7,69.6,29.94,SSE,157,4.0,7.0,67,0.00,,,0.01,meteohub,2013-06-19 17:12:00,
2013-06-19 12:17:00,81.9,69.4,29.94,SE,140,1.0,7.0,66,0.00,,,0.01,meteohub,2013-06-19 17:17:00,
2013-06-19 12:22:00,82.0,68.7,29.94,SE,126,6.0,11.0,64,0.00,,,0.01,meteohub,2013-06-19 17:22:00,
2013-06-19 12:27:00,82.0,69.6,29.94,ESE,123,7.0,11.0,66,0.00,,,0.01,meteohub,2013-06-19 17:27:00,
2013-06-19 12:32:00,82.2,69.8,29.94,SE,129,6.0,11.0,66,0.00,,,0.01,meteohub,2013-06-19 17:32:00,
2013-06-19 12:37:00,82.4,69.1,29.94,SSE,157,5.0,11.0,64,0.00,,,0.01,meteohub,2013-06-19 17:37:00,
2013-06-19 12:42:00,82.2,68.9,29.94,SW,236,4.0,11.0,64,0.00,,,0.01,meteohub,2013-06-19 17:42:00,
2013-06-19 12:47:00,82.6,69.1,29.94,SSE,166,4.0,11.0,64,0.00,,,0.01,meteohub,2013-06-19 17:47:00,
2013-06-19 12:52:00,82.6,68.7,29.94,SE,145,8.0,12.0,63,0.00,,,0.01,meteohub,2013-06-19 17:52:00,
2013-06-19 12:57:00,82.4,68.0,29.94,SSE,153,9.0,12.0,62,0.00,,,0.01,meteohub,2013-06-19 17:57:00,
2013-06-19 13:02:00,82.2,67.8,29.94,SSE,150,5.0,12.0,62,0.00,,,0.01,meteohub,2013-06-19 18:02:00,
2013-06-19 13:07:00,82.2,67.8,29.93,SE,142,3.0,12.0,62,0.00,,,0.01,meteohub,2013-06-19 18:07:00,
2013-06-19 13:12:00,82.6,68.7,29.93,ESE,113,2.0,12.0,63,0.00,,,0.01,meteohub,2013-06-19 18:12:00,
2013-06-19 13:17:00,82.6,68.7,29.93,ESE,123,2.0,12.0,63,0.00,,,0.01,meteohub,2013-06-19 18:17:00,
2013-06-19 13:22:00,82.6,68.7,29.93,South,173,6.0,11.0,63,0.00,,,0.01,meteohub,2013-06-19 18:22:00,
2013-06-19 13:27:00,82.9,68.2,29.93,South,169,6.0,11.0,61,0.00,,,0.01,meteohub,2013-06-19 18:27:00,
2013-06-19 13:32:00,83.1,67.3,29.93,SSE,153,5.0,11.0,59,0.00,,,0.01,meteohub,2013-06-19 18:32:00,
2013-06-19 13:37:00,83.7,66.4,29.92,ESE,115,1.0,11.0,56,0.00,,,0.01,meteohub,2013-06-19 18:37:00,
2013-06-19 13:42:00,83.7,66.7,29.92,SE,139,5.0,12.0,57,0.00,,,0.01,meteohub,2013-06-19 18:42:00,
2013-06-19 13:47:00,83.7,67.3,29.93,SE,136,6.0,12.0,58,0.00,,,0.01,meteohub,2013-06-19 18:47:00,
2013-06-19 13:52:00,83.5,65.7,29.92,SE,139,6.0,12.0,55,0.00,,,0.01,meteohub,2013-06-19 18:52:00,
2013-06-19 13:57:00,83.7,66.7,29.92,SE,132,5.0,12.0,57,0.00,,,0.01,meteohub,2013-06-19 18:57:00,
2013-06-19 14:02:00,83.8,68.0,29.92,SSE,162,6.0,12.0,59,0.00,,,0.01,meteohub,2013-06-19 19:02:00,
2013-06-19 14:07:00,84.2,67.3,29.92,SSE,149,6.0,12.0,57,0.00,,,0.01,meteohub,2013-06-19 19:07:00,
2013-06-19 14:12:00,84.7,66.2,29.92,SSW,203,4.0,13.0,54,0.00,,,0.01,meteohub,2013-06-19 19:12:00,
2013-06-19 14:17:00,85.1,67.1,29.92,SE,138,14.0,14.0,55,0.00,,,0.01,meteohub,2013-06-19 19:17:00,
2013-06-19 14:22:00,85.5,68.0,29.92,SE,142,9.0,13.0,56,0.00,,,0.01,meteohub,2013-06-19 19:22:00,
2013-06-19 14:27:00,85.6,67.1,29.92,South,173,5.0,13.0,54,0.00,,,0.01,meteohub,2013-06-19 19:27:00,
2013-06-19 14:32:00,85.5,66.4,29.92,SE,138,7.0,15.0,53,0.00,,,0.01,meteohub,2013-06-19 19:32:00,
2013-06-19 14:37:00,85.6,66.6,29.92,South,188,4.0,15.0,53,0.00,,,0.01,meteohub,2013-06-19 19:37:00,
2013-06-19 14:42:00,85.1,66.6,29.92,SE,138,7.0,14.0,54,0.00,,,0.01,meteohub,2013-06-19 19:42:00,
2013-06-19 14:47:00,85.3,67.3,29.92,SE,146,3.0,14.0,55,0.00,,,0.01,meteohub,2013-06-19 19:47:00,
2013-06-19 14:52:00,85.8,67.8,29.91,SE,138,11.0,14.0,55,0.00,,,0.01,meteohub,2013-06-19 19:52:00,
2013-06-19 14:57:00,86.4,67.8,29.91,SSE,157,6.0,15.0,54,0.00,,,0.01,meteohub,2013-06-19 19:57:00,
2013-06-19 15:02:00,86.2,67.6,29.91,SE,134,9.0,15.0,54,0.00,,,0.01,meteohub,2013-06-19 20:02:00,
2013-06-19 15:07:00,86.0,66.9,29.91,South,177,3.0,15.0,53,0.00,,,0.01,meteohub,2013-06-19 20:07:00,
2013-06-19 15:12:00,86.2,67.6,29.91,SE,139,4.0,14.0,54,0.00,,,0.01,meteohub,2013-06-19 20:12:00,
2013-06-19 15:17:00,86.5,68.0,29.91,SE,126,10.0,14.0,54,0.00,,,0.01,meteohub,2013-06-19 20:17:00,
2013-06-19 15:22:00,86.2,67.6,29.91,ESE,118,5.0,14.0,54,0.00,,,0.01,meteohub,2013-06-19 20:22:00,
2013-06-19 15:27:00,86.2,67.6,29.91,SE,139,5.0,14.0,54,0.00,,,0.01,meteohub,2013-06-19 20:27:00,
2013-06-19 15:32:00,86.2,67.6,29.91,SSW,213,3.0,17.0,54,0.00,,,0.01,meteohub,2013-06-19 20:32:00,
2013-06-19 15:37:00,86.4,67.8,29.91,SSE,148,6.0,17.0,54,0.00,,,0.01,meteohub,2013-06-19 20:37:00,
2013-06-19 15:42:00,86.4,68.4,29.91,SSE,148,10.0,15.0,55,0.00,,,0.01,meteohub,2013-06-19 20:42:00,
2013-06-19 15:47:00,86.5,67.5,29.91,SE,124,6.0,15.0,53,0.00,,,0.01,meteohub,2013-06-19 20:47:00,
2013-06-19 15:52:00,85.8,67.3,29.91,SSW,194,6.0,15.0,54,0.00,,,0.01,meteohub,2013-06-19 20:52:00,
2013-06-19 15:57:00,85.5,66.9,29.91,SE,126,7.0,12.0,54,0.00,,,0.01,meteohub,2013-06-19 20:57:00,
2013-06-19 16:02:00,85.6,66.0,29.91,SSE,148,8.0,12.0,52,0.00,,,0.01,meteohub,2013-06-19 21:02:00,
2013-06-19 16:07:00,86.4,66.0,29.91,SW,221,5.0,12.0,51,0.00,,,0.01,meteohub,2013-06-19 21:07:00,
2013-06-19 16:12:00,87.1,66.7,29.91,SE,139,7.0,14.0,51,0.00,,,0.01,meteohub,2013-06-19 21:12:00,
2013-06-19 16:17:00,87.3,66.9,29.91,SE,131,6.0,14.0,51,0.00,,,0.01,meteohub,2013-06-19 21:17:00,
2013-06-19 16:22:00,87.4,67.1,29.91,SE,127,3.0,14.0,51,0.00,,,0.01,meteohub,2013-06-19 21:22:00,
2013-06-19 16:27:00,87.3,66.4,29.91,SSE,157,10.0,14.0,50,0.00,,,0.01,meteohub,2013-06-19 21:27:00,
2013-06-19 16:32:00,87.1,66.7,29.91,SSE,154,6.0,16.0,51,0.00,,,0.01,meteohub,2013-06-19 21:32:00,
2013-06-19 16:37:00,87.1,66.7,29.91,SE,136,8.0,16.0,51,0.00,,,0.01,meteohub,2013-06-19 21:37:00,
2013-06-19 16:42:00,86.9,66.6,29.91,SSE,156,9.0,14.0,51,0.00,,,0.01,meteohub,2013-06-19 21:42:00,
2013-06-19 16:47:00,86.5,65.7,29.90,SSE,161,7.0,14.0,50,0.00,,,0.01,meteohub,2013-06-19 21:47:00,
2013-06-19 16:52:00,86.5,66.2,29.90,SE,134,3.0,14.0,51,0.00,,,0.01,meteohub,2013-06-19 21:52:00,
2013-06-19 16:57:00,87.3,66.9,29.89,SSE,153,4.0,17.0,51,0.00,,,0.01,meteohub,2013-06-19 21:57:00,
2013-06-19 17:02:00,87.3,66.9,29.89,ESE,122,2.0,17.0,51,0.00,,,0.01,meteohub,2013-06-19 22:02:00,
2013-06-19 17:07:00,86.9,67.1,29.89,ESE,110,6.0,17.0,52,0.00,,,0.01,meteohub,2013-06-19 22:07:00,
2013-06-19 17:12:00,86.7,66.4,29.89,SE,141,5.0,14.0,51,0.00,,,0.01,meteohub,2013-06-19 22:12:00,
2013-06-19 17:17:00,86.5,65.7,29.89,South,181,9.0,14.0,50,0.00,,,0.01,meteohub,2013-06-19 22:17:00,
2013-06-19 17:22:00,86.2,65.8,29.89,SSE,156,6.0,14.0,51,0.00,,,0.01,meteohub,2013-06-19 22:22:00,
2013-06-19 17:27:00,86.0,66.4,29.89,SSE,165,4.0,14.0,52,0.00,,,0.01,meteohub,2013-06-19 22:27:00,
2013-06-19 17:32:00,86.2,66.6,29.88,SE,132,7.0,14.0,52,0.00,,,0.01,meteohub,2013-06-19 22:32:00,
2013-06-19 17:37:00,86.9,66.6,29.88,South,170,6.0,14.0,51,0.00,,,0.01,meteohub,2013-06-19 22:37:00,
2013-06-19 17:42:00,86.9,66.6,29.88,SE,136,6.0,11.0,51,0.00,,,0.01,meteohub,2013-06-19 22:42:00,
2013-06-19 17:47:00,86.4,66.0,29.88,SSE,159,4.0,11.0,51,0.00,,,0.01,meteohub,2013-06-19 22:47:00,
2013-06-19 17:52:00,86.4,65.5,29.88,SE,129,4.0,11.0,50,0.00,,,0.01,meteohub,2013-06-19 22:52:00,
2013-06-19 17:57:00,86.4,66.0,29.88,South,178,10.0,14.0,51,0.00,,,0.01,meteohub,2013-06-19 22:57:00,
2013-06-19 18:02:00,86.4,66.0,29.88,South,182,4.0,14.0,51,0.00,,,0.01,meteohub,2013-06-19 23:02:00,
2013-06-19 18:07:00,85.8,66.7,29.88,SE,142,4.0,14.0,53,0.00,,,0.01,meteohub,2013-06-19 23:07:00,
2013-06-19 18:12:00,85.8,67.3,29.87,ESE,113,6.0,14.0,54,0.00,,,0.01,meteohub,2013-06-19 23:12:00,
2013-06-19 18:17:00,86.0,66.9,29.87,SE,139,7.0,13.0,53,0.00,,,0.01,meteohub,2013-06-19 23:17:00,
2013-06-19 18:22:00,86.0,66.4,29.87,SSE,154,6.0,13.0,52,0.00,,,0.01,meteohub,2013-06-19 23:22:00,
2013-06-19 18:27:00,86.0,66.4,29.87,SE,144,7.0,13.0,52,0.00,,,0.01,meteohub,2013-06-19 23:27:00,
2013-06-19 18:32:00,86.0,66.9,29.87,SE,143,3.0,14.0,53,0.00,,,0.01,meteohub,2013-06-19 23:32:00,
2013-06-19 18:37:00,86.2,66.6,29.87,SE,142,8.0,14.0,52,0.00,,,0.01,meteohub,2013-06-19 23:37:00,
2013-06-19 18:42:00,85.6,66.0,29.87,South,169,5.0,14.0,52,0.00,,,0.01,meteohub,2013-06-19 23:42:00,
2013-06-19 18:47:00,85.3,66.2,29.87,SSE,150,5.0,14.0,53,0.00,,,0.01,meteohub,2013-06-19 23:47:00,
2013-06-19 18:52:00,85.5,66.4,29.87,SE,138,7.0,12.0,53,0.00,,,0.01,meteohub,2013-06-19 23:52:00,
2013-06-19 18:57:00,85.5,66.9,29.87,SSE,151,6.0,12.0,54,0.00,,,0.01,meteohub,2013-06-19 23:57:00,
2013-06-19 19:02:00,85.6,66.6,29.87,SE,137,5.0,12.0,53,0.00,,,0.01,meteohub,2013-06-20 00:02:00,
2013-06-19 19:07:00,85.6,66.6,29.87,SE,132,6.0,12.0,53,0.00,,,0.01,meteohub,2013-06-20 00:07:00,
2013-06-19 19:12:00,85.5,66.4,29.87,SE,128,4.0,11.0,53,0.00,,,0.01,meteohub,2013-06-20 00:12:00,
2013-06-19 19:17:00,85.3,66.2,29.87,SSE,155,6.0,11.0,53,0.00,,,0.01,meteohub,2013-06-20 00:17:00,
2013-06-19 19:22:00,85.3,66.7,29.88,SE,146,3.0,11.0,54,0.00,,,0.00,meteohub,2013-06-20 00:22:00,
2013-06-19 19:27:00,85.3,66.7,29.88,SSE,164,6.0,11.0,54,0.00,,,0.00,meteohub,2013-06-20 00:27:00,
2013-06-19 19:32:00,85.3,66.7,29.88,South,175,9.0,10.0,54,0.00,,,0.00,meteohub,2013-06-20 00:32:00,
2013-06-19 19:37:00,85.3,67.3,29.88,SSE,149,3.0,10.0,55,0.00,,,0.00,meteohub,2013-06-20 00:37:00,
2013-06-19 19:42:00,85.1,67.1,29.88,SE,146,4.0,11.0,55,0.00,,,0.00,meteohub,2013-06-20 00:42:00,
2013-06-19 19:47:00,84.9,66.9,29.88,SSE,156,5.0,11.0,55,0.00,,,0.00,meteohub,2013-06-20 00:47:00,
2013-06-19 19:52:00,84.7,67.3,29.87,ESE,119,6.0,11.0,56,0.00,,,0.00,meteohub,2013-06-20 00:52:00,
2013-06-19 19:57:00,84.4,66.9,29.87,SE,145,3.0,12.0,56,0.00,,,0.00,meteohub,2013-06-20 00:57:00,
2013-06-19 20:02:00,84.2,67.3,29.87,SSE,163,3.0,12.0,57,0.00,,,0.00,meteohub,2013-06-20 01:02:00,
2013-06-19 20:07:00,84.0,67.6,29.87,ESE,122,2.0,12.0,58,0.00,,,0.00,meteohub,2013-06-20 01:07:00,
2013-06-19 20:12:00,83.7,67.3,29.87,SE,131,2.0,7.0,58,0.00,,,0.00,meteohub,2013-06-20 01:12:00,
2013-06-19 20:17:00,83.5,67.6,29.87,SE,128,3.0,7.0,59,0.00,,,0.00,meteohub,2013-06-20 01:17:00,
2013-06-19 20:22:00,83.3,67.5,29.87,SSE,161,2.0,7.0,59,0.00,,,0.00,meteohub,2013-06-20 01:22:00,
2013-06-19 20:27:00,82.9,67.1,29.87,SSE,161,2.0,7.0,59,0.00,,,0.00,meteohub,2013-06-20 01:27:00,
2013-06-19 20:32:00,82.8,67.5,29.87,ESE,108,2.0,7.0,60,0.00,,,0.00,meteohub,2013-06-20 01:32:00,
2013-06-19 20:37:00,82.6,67.8,29.87,SE,139,3.0,7.0,61,0.00,,,0.00,meteohub,2013-06-20 01:37:00,
2013-06-19 20:42:00,82.2,67.5,29.87,SE,136,3.0,7.0,61,0.00,,,0.00,meteohub,2013-06-20 01:42:00,
2013-06-19 20:47:00,82.0,67.6,29.87,SE,140,5.0,7.0,62,0.00,,,0.00,meteohub,2013-06-20 01:47:00,
2013-06-19 20:52:00,81.9,67.6,29.87,SE,128,2.0,7.0,62,0.00,,,0.00,meteohub,2013-06-20 01:52:00,
2013-06-19 20:57:00,81.7,67.8,29.88,SE,127,4.0,7.0,63,0.00,,,0.00,meteohub,2013-06-20 01:57:00,
2013-06-19 21:02:00,81.5,67.6,29.88,SE,146,3.0,7.0,63,0.00,,,0.00,meteohub,2013-06-20 02:02:00,
2013-06-19 21:07:00,81.3,67.5,29.88,SE,142,2.0,7.0,63,0.00,,,0.00,meteohub,2013-06-20 02:07:00,
2013-06-19 21:12:00,81.1,67.8,29.88,SE,140,2.0,6.0,64,0.00,,,0.00,meteohub,2013-06-20 02:12:00,
2013-06-19 21:17:00,81.0,67.6,29.88,SE,138,1.0,6.0,64,0.00,,,0.00,meteohub,2013-06-20 02:17:00,
2013-06-19 21:22:00,80.8,68.0,29.88,SSE,156,4.0,6.0,65,0.00,,,0.00,meteohub,2013-06-20 02:22:00,
2013-06-19 21:27:00,80.6,67.8,29.89,SE,130,2.0,6.0,65,0.00,,,0.00,meteohub,2013-06-20 02:27:00,
2013-06-19 21:32:00,80.4,68.0,29.89,SE,135,2.0,10.0,66,0.00,,,0.00,meteohub,2013-06-20 02:32:00,
2013-06-19 21:37:00,80.1,67.6,29.89,SE,144,2.0,10.0,66,0.00,,,0.00,meteohub,2013-06-20 02:37:00,
2013-06-19 21:42:00,79.9,68.0,29.89,SSE,153,1.0,4.0,67,0.00,,,0.00,meteohub,2013-06-20 02:42:00,
2013-06-19 21:47:00,79.5,68.0,29.89,SSE,148,4.0,4.0,68,0.00,,,0.00,meteohub,2013-06-20 02:47:00,
2013-06-19 21:52:00,79.3,67.8,29.89,SE,146,1.0,4.0,68,0.00,,,0.00,meteohub,2013-06-20 02:52:00,
2013-06-19 21:57:00,79.2,68.2,29.89,SSE,160,4.0,5.0,69,0.00,,,0.00,meteohub,2013-06-20 02:57:00,
2013-06-19 22:02:00,79.0,68.0,29.89,SSE,150,3.0,5.0,69,0.00,,,0.00,meteohub,2013-06-20 03:02:00,
2013-06-19 22:07:00,79.0,68.4,29.90,SSE,168,4.0,5.0,70,0.00,,,0.00,meteohub,2013-06-20 03:07:00,
2013-06-19 22:12:00,78.6,68.0,29.91,SSE,156,2.0,6.0,70,0.00,,,0.00,meteohub,2013-06-20 03:12:00,
2013-06-19 22:17:00,78.4,67.8,29.91,SE,142,2.0,6.0,70,0.00,,,0.00,meteohub,2013-06-20 03:17:00,
2013-06-19 22:22:00,78.4,68.2,29.91,SE,136,3.0,6.0,71,0.00,,,0.00,meteohub,2013-06-20 03:22:00,
2013-06-19 22:27:00,78.3,68.0,29.91,SSE,155,4.0,6.0,71,0.00,,,0.00,meteohub,2013-06-20 03:27:00,
2013-06-19 22:32:00,78.1,68.4,29.91,SSE,149,2.0,5.0,72,0.00,,,0.00,meteohub,2013-06-20 03:32:00,
2013-06-19 22:37:00,77.7,68.0,29.91,SE,138,2.0,5.0,72,0.00,,,0.00,meteohub,2013-06-20 03:37:00,
2013-06-19 22:42:00,77.5,68.2,29.91,SSE,150,3.0,5.0,73,0.00,,,0.00,meteohub,2013-06-20 03:42:00,
2013-06-19 22:47:00,77.5,68.2,29.91,SSE,152,4.0,5.0,73,0.00,,,0.00,meteohub,2013-06-20 03:47:00,
2013-06-19 22:52:00,77.4,68.0,29.91,SSE,161,3.0,5.0,73,0.00,,,0.00,meteohub,2013-06-20 03:52:00,
2013-06-19 22:57:00,77.2,68.2,29.91,South,178,3.0,5.0,74,0.00,,,0.00,meteohub,2013-06-20 03:57:00,
2013-06-19 23:01:00,77.0,68.0,29.91,SE,136,2.0,5.0,74,0.00,,,0.00,meteohub,2013-06-20 04:01:00,
2013-06-19 23:02:00,76.8,67.8,29.91,SSE,164,2.0,5.0,74,0.00,,,0.00,meteohub,2013-06-20 04:02:00,
2013-06-19 23:07:00,76.8,67.8,29.91,SE,140,4.0,5.0,74,0.00,,,0.00,meteohub,2013-06-20 04:07:00,
2013-06-19 23:12:00,76.6,68.2,29.92,SSE,151,3.0,6.0,75,0.00,,,0.00,meteohub,2013-06-20 04:12:00,
2013-06-19 23:17:00,76.5,68.0,29.91,SSE,167,3.0,6.0,75,0.00,,,0.00,meteohub,2013-06-20 04:17:00,
2013-06-19 23:22:00,76.5,68.0,29.91,SSE,157,2.0,6.0,75,0.00,,,0.00,meteohub,2013-06-20 04:22:00,
2013-06-19 23:27:00,76.3,67.8,29.91,South,178,4.0,6.0,75,0.00,,,0.00,meteohub,2013-06-20 04:27:00,
2013-06-19 23:32:00,76.3,67.8,29.91,SSE,160,2.0,6.0,75,0.00,,,0.00,meteohub,2013-06-20 04:32:00,
2013-06-19 23:37:00,76.1,67.6,29.91,SSE,155,4.0,6.0,75,0.00,,,0.00,meteohub,2013-06-20 04:37:00,
2013-06-19 23:42:00,75.9,67.5,29.92,SSE,154,3.0,6.0,75,0.00,,,0.00,meteohub,2013-06-20 04:42:00,
2013-06-19 23:47:00,75.9,67.5,29.92,SE,143,3.0,6.0,75,0.00,,,0.00,meteohub,2013-06-20 04:47:00,
2013-06-19 23:52:00,75.7,67.6,29.92,SSE,160,2.0,6.0,76,0.00,,,0.00,meteohub,2013-06-20 04:52:00,
2013-06-19 23:57:00,75.6,67.5,29.92,SSE,152,2.0,6.0,76,0.00,,,0.00,meteohub,2013-06-20 04:57:00,